Waarnemingen

Advertentie
Mijn weer
Nikkaluokta, Zweden (2036): temperatuur & dauwpunt: 10.01.2018 10:00:00 - 16.01.2018 10:00:00 (CET)Nikkaluokta, Zweden (2036): windsnelheid & windstoten: 10.01.2018 10:00:00 - 16.01.2018 10:00:00 (CET)Nikkaluokta, Zweden (2036): windrichting: 10.01.2018 10:00:00 - 16.01.2018 10:00:00 (CET)Nikkaluokta, Zweden (2036): luchtdruk: 10.01.2018 10:00:00 - 16.01.2018 10:00:00 (CET)Nikkaluokta, Zweden (2036): zicht: 10.01.2018 10:00:00 - 16.01.2018 10:00:00 (CET)Nikkaluokta, Zweden (2036): neerslag: 10.01.2018 10:00:00 - 16.01.2018 10:00:00 (CET)
Datum & Tijd tt [°C] td [°C] ff [km/u] ff [kn] fx [km/u] fx [kn] dd ppp [hPa] vv [km] rr [mm]
16.01.2018 10:00:00 - - - - - - - - - -
16.01.2018 09:00:00 -7,0 -9,1 13 7 41 22 OZO 997,6 2,2 0,0
16.01.2018 08:00:00 -6,9 -8,8 10 6 28 15 OZO 997,5 2,0 0,1
16.01.2018 07:00:00 -6,5 -8,6 15 8 47 26 OZO 997,2 2,0 0,2
16.01.2018 06:00:00 -6,2 -8,2 16 9 58 32 ZZO 996,5 0,8 0,1
16.01.2018 05:00:00 -5,6 -7,9 29 16 59 32 ZO 996,8 1,7 0,1
16.01.2018 04:00:00 -5,1 -7,4 28 15 60 32 ZO 997,6 1,3 0,1
16.01.2018 03:00:00 -5,2 -7,0 25 14 52 28 ZO 998,7 1,5 0,2
16.01.2018 02:00:00 -4,9 -6,9 28 15 65 35 ZO 999,4 1,3 0,1
16.01.2018 01:00:00 -4,7 -6,7 23 12 64 35 ZZO 999,4 1,1 0,2
16.01.2018 00:00:00 -4,5 -6,0 26 14 87 47 ZZO 999,9 1,1 0,0
15.01.2018 23:00:00 -4,8 -6,3 28 15 57 31 Z 1000,8 0,9 0,2
15.01.2018 22:00:00 -4,6 -6,3 15 8 54 29 ZZO 1002,1 1,5 0,2
15.01.2018 21:00:00 -4,8 -6,3 15 8 36 19 ZZO 1002,8 1,4 0,1
15.01.2018 20:00:00 -4,9 -6,3 15 8 53 28 ZZO 1003,3 1,1 0,2
15.01.2018 19:00:00 -4,9 -6,6 20 11 59 32 ZZO 1003,1 1,3 0,3
15.01.2018 18:00:00 -4,9 -6,9 34 18 66 36 Z 1003,3 0,5 0,3
15.01.2018 17:00:00 -5,2 -7,6 21 11 56 30 Z 1004,6 1,3 0,0
15.01.2018 16:00:00 -5,8 -9,0 19 10 50 27 Z 1005,9 2,5 0,0
15.01.2018 15:00:00 -6,8 -10,7 8 5 52 28 WZW 1006,9 8 0,1
15.01.2018 14:00:00 -7,2 -11,7 13 7 53 28 ZO 1007,2 6 0,0
15.01.2018 13:00:00 -7,3 -11,5 12 6 45 24 WZW 1008,2 5 0,0
15.01.2018 12:00:00 -7,6 -11,6 16 9 61 33 O 1008,5 8 0,1
15.01.2018 11:00:00 -7,7 -11,5 15 8 56 31 O 1008,6 7 0,1
15.01.2018 10:00:00 -7,8 -11,5 16 9 56 31 ZZO 1008,9 2,8 0,1
15.01.2018 09:00:00 -7,7 -11,5 13 7 49 26 ZO 1009,5 2,0 0,1
15.01.2018 08:00:00 -7,9 -11,7 16 9 42 23 ZZO 1009,4 4,4 0,0
15.01.2018 07:00:00 -8,1 -11,6 14 8 46 25 O 1010,0 1,7 0,0
15.01.2018 06:00:00 -8,4 -12,0 19 10 48 26 ZZO 1010,1 2,9 0,1
15.01.2018 05:00:00 -8,8 -11,5 16 8 29 16 NNO 1011,0 1,6 0,1
15.01.2018 04:00:00 -8,8 -12,9 12 7 50 27 Z 1011,9 7 0,0
15.01.2018 03:00:00 -9,4 -13,3 13 7 76 41 ZZO 1012,7 4,0 0,0
15.01.2018 02:00:00 -10,1 -13,4 16 8 32 18 OZO 1013,9 10 0,0
15.01.2018 01:00:00 -11,4 -14,0 13 7 37 20 Z 1014,7 44 0,0
15.01.2018 00:00:00 -12,6 -13,5 11 6 29 15 O 1015,6 12 0,0
14.01.2018 23:00:00 -22,6 -25,0 10 6 27 15 NW 1017,9 8 0,0
14.01.2018 22:00:00 -24,6 -27,1 8 5 17 9 WNW 1019,4 8 0,1
14.01.2018 21:00:00 -27,4 -30,1 6 3 13 7 W 1020,2 50 0,0
14.01.2018 20:00:00 -30,2 -33,5 6 3 13 7 NW 1021,2 50 0,0
14.01.2018 19:00:00 -29,1 -31,7 10 5 14 8 WNW 1021,9 50 0,0
14.01.2018 18:00:00 -31,9 -35,3 6 4 11 6 WNW 1023,0 50 0,0
14.01.2018 17:00:00 -32,2 -35,5 4 2 12 6 WNW 1023,3 50 0,0
14.01.2018 16:00:00 -32,2 -35,5 9 5 11 6 NW 1023,8 50 0,0
14.01.2018 15:00:00 -32,0 -35,4 3 2 7 4 Z 1023,9 50 0,0
14.01.2018 14:00:00 -30,0 -33,3 5 3 12 7 W 1024,1 50 0,0
14.01.2018 13:00:00 -30,9 -34,1 4 2 9 5 WZW 1024,9 50 0,0
14.01.2018 12:00:00 -30,7 -34,1 3 1 7 4 WZW 1025,1 50 0,0
14.01.2018 11:00:00 -29,8 -32,9 1 1 10 6 OZO 1025,5 50 0,0
14.01.2018 10:00:00 -28,5 -31,4 5 3 9 5 NW 1025,4 50 0,0
14.01.2018 09:00:00 -28,6 -31,9 4 2 32 18 W 1026,0 50 0,0
14.01.2018 08:00:00 -27,1 -30,0 9 5 15 8 ONO 1026,1 50 0,0
14.01.2018 07:00:00 -26,1 -28,8 9 5 12 6 W 1026,5 50 0,0
14.01.2018 06:00:00 -24,5 -27,1 6 3 11 6 WNW 1027,0 50 0,0
14.01.2018 05:00:00 -24,7 -27,6 3 2 12 7 NNW 1027,4 50 0,0
14.01.2018 04:00:00 -25,6 -28,6 5 3 11 6 NW 1028,1 50 0,0
14.01.2018 03:00:00 -26,0 -29,0 3 2 10 5 ONO 1029,0 50 0,0
14.01.2018 02:00:00 -25,2 -27,9 2 1 9 5 WZW 1029,1 50 0,0
14.01.2018 01:00:00 -25,2 -28,2 4 2 7 4 ZZW 1029,7 50 0,0
14.01.2018 00:00:00 -24,1 -26,7 3 2 12 6 WNW 1030,4 50 0,0
13.01.2018 23:00:00 -24,0 -26,5 8 4 13 7 NW 1030,9 50 0,0
13.01.2018 22:00:00 -25,1 -28,0 7 4 9 5 NW 1031,4 50 0,0
13.01.2018 21:00:00 -24,4 -27,1 3 1 6 3 NO 1031,6 50 0,0
13.01.2018 20:00:00 -23,1 -25,6 3 1 14 8 W 1031,8 50 0,0
13.01.2018 19:00:00 -22,5 -25,3 7 4 14 7 WNW 1032,4 50 0,0
13.01.2018 18:00:00 -23,4 -26,2 6 3 11 6 WNW 1032,8 50 0,0
13.01.2018 17:00:00 -22,6 -25,2 2 1 6 3 OZO 1033,0 50 0,0
13.01.2018 16:00:00 -21,8 -24,5 1 1 7 4 ZZW 1033,0 50 0,0
13.01.2018 15:00:00 -19,9 -22,3 4 2 10 6 ZO 1033,2 50 0,0
13.01.2018 14:00:00 -18,1 -20,1 5 3 9 5 NW 1033,4 50 0,0
13.01.2018 13:00:00 -17,8 -20,1 3 2 10 5 NO 1033,7 50 0,0
13.01.2018 12:00:00 -17,7 -19,5 6 4 13 7 WNW 1034,2 50 0,0
13.01.2018 11:00:00 -17,5 -19,5 8 5 15 8 O 1034,6 50 0,0
13.01.2018 10:00:00 -16,3 -18,1 5 3 11 6 W 1034,6 50 0,0
13.01.2018 09:00:00 -13,9 -15,5 7 4 14 8 NW 1034,6 50 0,0
13.01.2018 08:00:00 -15,7 -17,4 8 4 11 6 NNW 1035,0 50 0,0
13.01.2018 07:00:00 -15,8 -17,6 5 3 9 5 W 1035,0 50 0,0
13.01.2018 06:00:00 -17,1 -19,0 3 2 8 4 ZZO 1035,8 50 0,0
13.01.2018 05:00:00 -18,0 -20,0 4 2 10 5 O 1036,2 50 0,0
13.01.2018 04:00:00 -19,1 -21,3 1 1 10 6 ZZO 1036,5 50 0,0
13.01.2018 03:00:00 -16,7 -18,2 4 2 12 7 ZO 1036,8 50 0,0
13.01.2018 02:00:00 -14,0 -15,0 8 4 15 8 WNW 1036,5 50 0,0
13.01.2018 01:00:00 -11,8 -12,3 12 6 14 8 WNW 1036,5 50 0,0
13.01.2018 00:00:00 -12,3 -13,7 4 2 12 7 NW 1036,6 50 0,0
12.01.2018 23:00:00 -10,4 -11,9 4 2 14 8 O 1036,0 50 0,0
12.01.2018 22:00:00 -9,1 -11,2 8 4 18 10 O 1035,5 50 0,0
12.01.2018 21:00:00 -2,7 -7,6 6 3 34 18 ZW 1033,9 50 0,0
12.01.2018 20:00:00 -2,1 -7,2 8 5 23 13 WZW 1033,6 50 0,0
12.01.2018 19:00:00 -1,9 -8,0 13 7 39 21 WNW 1032,9 50 0,0
12.01.2018 18:00:00 1,1 -5,6 23 12 45 24 W 1032,8 50 0,0
12.01.2018 17:00:00 1,1 -4,7 25 14 47 25 W 1031,9 42 0,0
12.01.2018 16:00:00 -7,1 -9,0 7 4 21 11 ZZO 1032,7 40 0,0
12.01.2018 15:00:00 0,8 -5,2 17 9 27 14 W 1031,4 50 0,0
12.01.2018 14:00:00 0,4 -4,8 11 6 37 20 W 1031,1 50 0,0
12.01.2018 13:00:00 -1,4 -3,9 17 9 31 17 W 1030,5 50 0,0
12.01.2018 12:00:00 -6,7 -8,6 9 5 27 14 OZO 1030,7 50 0,0
12.01.2018 11:00:00 -13,0 -14,8 4 2 19 11 N 1030,6 50 0,0
12.01.2018 10:00:00 -12,0 -13,7 11 6 16 9 ZW 1029,7 50 0,0
12.01.2018 09:00:00 -12,2 -14,1 4 2 13 7 NNW 1029,4 50 0,0
12.01.2018 08:00:00 -13,1 -14,9 3 2 11 6 Z 1029,2 50 0,0
12.01.2018 07:00:00 -13,2 -15,0 4 2 9 5 Z 1028,8 50 0,0
12.01.2018 06:00:00 -13,5 -15,6 3 2 9 5 ZW 1028,9 50 0,0
12.01.2018 05:00:00 -14,1 -16,4 3 2 9 5 NO 1028,8 50 0,0
12.01.2018 04:00:00 -15,5 -17,4 2 1 9 5 Z 1028,7 50 0,0
12.01.2018 03:00:00 -16,1 -18,3 3 2 6 4 W 1028,5 50 0,0
12.01.2018 02:00:00 -17,0 -19,1 3 2 6 4 NO 1028,9 50 0,0
12.01.2018 01:00:00 -18,3 -20,6 3 2 14 8 NW 1028,7 50 0,0
12.01.2018 00:00:00 -19,8 -22,1 4 2 6 3 ZW 1028,4 50 0,0
11.01.2018 23:00:00 -20,4 -22,8 3 1 8 4 WNW 1028,6 50 0,0
11.01.2018 22:00:00 -21,2 -23,6 2 1 5 3 NNO 1028,5 50 0,0
11.01.2018 21:00:00 -21,8 -24,3 3 2 7 4 NO 1028,3 50 0,0
11.01.2018 20:00:00 -22,2 -24,7 3 2 8 4 NO 1027,7 50 0,0
11.01.2018 19:00:00 -22,7 -25,2 4 2 8 5 WNW 1027,7 50 0,0
11.01.2018 18:00:00 -23,9 -26,4 3 2 9 5 W 1027,7 50 0,0
11.01.2018 17:00:00 -25,0 -27,7 3 2 10 5 NNW 1028,0 7 0,0
11.01.2018 16:00:00 -25,4 -28,1 3 2 10 6 Z 1027,7 50 0,0
11.01.2018 15:00:00 -26,6 -29,4 7 4 10 6 WNW 1027,6 50 0,0
11.01.2018 14:00:00 -27,1 -29,9 3 1 7 4 WNW 1028,0 25 0,0
11.01.2018 13:00:00 -27,3 -30,2 3 2 6 3 WNW 1028,3 50 0,0
11.01.2018 12:00:00 -27,2 -30,1 1 1 6 3 W 1027,9 50 0,0
11.01.2018 11:00:00 -27,6 -30,7 2 1 6 3 Z 1028,2 50 0,0
11.01.2018 10:00:00 -27,4 -30,3 3 2 8 4 W 1028,4 50 0,0
11.01.2018 09:00:00 -27,9 -31,1 3 2 9 5 NW 1028,3 50 0,0
11.01.2018 08:00:00 -27,4 -30,3 5 3 7 4 NW 1028,0 50 0,0
11.01.2018 07:00:00 -27,4 -30,3 1 1 5 3 ZW 1027,8 50 0,0
11.01.2018 06:00:00 -27,1 -30,0 1 1 5 3 ZW 1027,6 50 0,0
11.01.2018 05:00:00 -26,6 -29,4 2 1 6 3 WNW 1027,6 50 0,0
11.01.2018 04:00:00 -26,4 -29,2 2 1 4 2 WNW 1027,6 50 0,0
11.01.2018 03:00:00 -26,4 -29,4 2 1 8 4 O 1027,7 50 0,0
11.01.2018 02:00:00 -25,2 -27,9 4 2 7 4 WNW 1027,6 50 0,0
11.01.2018 01:00:00 -24,5 -27,1 6 3 8 4 WNW 1027,4 50 0,0
11.01.2018 00:00:00 -24,5 -27,4 3 2 5 3 ONO 1027,4 50 0,0
10.01.2018 23:00:00 -23,6 -26,4 3 2 12 7 NO 1027,4 50 0,0
10.01.2018 22:00:00 -22,9 -25,3 6 3 8 5 NW 1027,3 50 0,0
10.01.2018 21:00:00 -22,9 -25,4 4 2 7 4 OZO 1027,3 50 0,0
10.01.2018 20:00:00 -21,8 -24,3 3 2 10 6 WZW 1026,9 50 0,0
10.01.2018 19:00:00 -22,1 -24,5 8 4 10 6 WNW 1026,5 50 0,0
10.01.2018 18:00:00 -22,2 -24,7 5 3 7 4 W 1026,5 50 0,0
10.01.2018 17:00:00 -21,5 -23,7 1 1 16 9 Z 1026,2 50 0,0
10.01.2018 16:00:00 -21,1 -22,9 6 3 8 5 W 1025,8 18 0,0
10.01.2018 15:00:00 -21,2 -23,6 3 2 9 5 NW 1025,9 50 0,0
10.01.2018 14:00:00 -20,8 -23,1 5 3 9 5 W 1026,1 50 0,0
10.01.2018 13:00:00 -20,7 -23,0 5 3 7 4 W 1026,1 50 0,0
10.01.2018 12:00:00 -20,7 -23,2 4 2 7 4 W 1026,0 34 0,0
10.01.2018 11:00:00 -20,1 -22,5 1 1 5 3 Z 1025,9 50 0,0
10.01.2018 10:00:00 -18,6 -20,9 2 1 7 4 OZO 1025,5 50 0,0

tt = temperatuur
td = dauwpunt
ff = windsnelheid
fx = windstoten
dd = windrichting
ppp = luchtdruk
vv = zicht
rr = neerslag

Weerstations in de omgeving